Weather History for Three Rivers, MI

Change the Weather History Date:

Thursday, July 10, 2014

  Actual Average Record
Temperature  
Mean Temperature 64 °F -  
Max Temperature 74 °F 85 °F 95 °F (1974)
Min Temperature 53 °F 63 °F 42 °F (1963)
Degree Days  
Heating Degree Days 2    
Growing Degree Days 14 (Base 50)    
Moisture  
Dew Point 56 °F    
Average Humidity 75    
Maximum Humidity 100    
Minimum Humidity 48    
Precipitation  
Precipitation 0.00 in - - ()
Sea Level Pressure  
Sea Level Pressure 30.15 in    
Wind  
Wind Speed 1 mph (NNE)    
Max Wind Speed 7 mph    
Max Gust Speed -    
Visibility 10 miles    
Events      
Averages and records for this station are not official NWS values.
T = Trace of Precipitation, MM = Missing Value Source: NWS Daily Summary

Daily Weather History Graph

Daily Weather History Graph

Search for Another Location

Airport:

Trip Planner

Search our weather history database for the weather conditions in past years. The results will help you decide how hot, cold, wet, or windy it might be!

Date:

Astronomy

Jul. 10, 2014 Rise Set
Actual Time 6:16 AM EDT 9:18 PM EDT
Civil Twilight 5:42 AM EDT 9:52 PM EDT
Nautical Twilight 4:59 AM EDT 10:35 PM EDT
Astronomical Twilight 4:08 AM EDT 11:25 PM EDT
Moon 7:30 PM EDT (7/10) 4:28 AM EDT (7/10)
Length of Visible Light 16h 09m
Length of Day
15h 02m
Waxing Gibbous, 95% of the Moon is Illuminated
Jul 10
Waxing Gibbous
Jul 12
Full
Jul 18
Last Quarter
Jul 26
New
Aug 3
First Quarter

Hourly Weather History & Observations

Time (EDT) Temp. Dew Point Humidity Pressure Visibility Wind Dir Wind Speed Gust Speed Precip Events Conditions
12:15 AM 60.8 °F 57.6 °F 89% 30.07 in 10.0 mi Calm Calm - N/A   Clear
12:35 AM 61.2 °F 57.2 °F 87% 30.07 in 10.0 mi Calm Calm - N/A   Clear
12:55 AM 61.0 °F 56.8 °F 86% 30.07 in 10.0 mi Calm Calm - N/A   Clear
1:15 AM 59.2 °F 56.1 °F 90% 30.07 in 10.0 mi Calm Calm - N/A   Clear
1:35 AM 59.5 °F 56.5 °F 90% 30.08 in 10.0 mi Calm Calm - N/A   Clear
1:54 AM 58.8 °F 56.5 °F 92% 30.08 in 10.0 mi Calm Calm - N/A   Clear
2:15 AM 58.1 °F 56.3 °F 94% 30.08 in 10.0 mi Calm Calm - N/A   Clear
2:35 AM 57.2 °F 55.6 °F 94% 30.09 in 10.0 mi Calm Calm - N/A   Clear
2:55 AM 56.5 °F 55.4 °F 96% 30.09 in 10.0 mi Calm Calm - N/A   Clear
3:15 AM 56.8 °F 55.4 °F 95% 30.10 in 10.0 mi Calm Calm - N/A   Clear
3:35 AM 55.9 °F 54.7 °F 96% 30.10 in 10.0 mi Calm Calm - N/A   Clear
4:15 AM 55.2 °F 54.5 °F 97% 30.10 in 10.0 mi Calm Calm - N/A   Clear
4:34 AM 54.9 °F 54.3 °F 98% 30.11 in 10.0 mi Calm Calm - N/A   Clear
4:55 AM 54.5 °F 53.8 °F 97% 30.11 in 7.0 mi Calm Calm - N/A   Clear
5:15 AM 54.7 °F 54.5 °F 99% 30.11 in 10.0 mi Calm Calm - N/A   Clear
5:35 AM 54.3 °F 54.0 °F 99% 30.11 in 7.0 mi Calm Calm - N/A   Clear
5:55 AM 53.6 °F 53.6 °F 100% 30.12 in 7.0 mi Calm Calm - N/A   Clear
6:15 AM 53.8 °F 53.6 °F 99% 30.12 in 10.0 mi Calm Calm - N/A   Clear
6:35 AM 54.1 °F 54.1 °F 100% 30.13 in 7.0 mi Calm Calm - N/A   Clear
6:55 AM 54.0 °F 54.0 °F 100% 30.14 in 7.0 mi Calm Calm - N/A   Clear
7:15 AM 55.8 °F 55.8 °F 100% 30.14 in 7.0 mi Calm Calm - N/A   Clear
7:35 AM 57.9 °F 56.8 °F 96% 30.15 in 10.0 mi Calm Calm - N/A   Clear
7:55 AM 59.2 °F 56.7 °F 91% 30.15 in 10.0 mi Calm Calm - N/A   Clear
8:15 AM 59.7 °F 57.2 °F 91% 30.15 in 10.0 mi North 3.5 mph - N/A   Clear
8:35 AM 61.0 °F 57.6 °F 88% 30.16 in 10.0 mi Calm Calm - N/A   Clear
8:55 AM 62.4 °F 58.1 °F 86% 30.16 in 10.0 mi NNE 3.5 mph - N/A   Clear
9:14 AM 63.7 °F 58.8 °F 84% 30.16 in 10.0 mi Calm Calm - N/A   Clear
9:35 AM 64.8 °F 58.1 °F 79% 30.17 in 10.0 mi NNE 3.5 mph - N/A   Clear
9:55 AM 66.2 °F 56.8 °F 72% 30.17 in 10.0 mi NNE 4.6 mph - N/A   Clear
10:14 AM 66.6 °F 55.4 °F 67% 30.17 in 10.0 mi NE 5.8 mph - N/A   Clear
10:35 AM 67.3 °F 56.5 °F 68% 30.18 in 10.0 mi NE 3.5 mph - N/A   Clear
10:55 AM 68.2 °F 55.2 °F 63% 30.18 in 10.0 mi Calm Calm - N/A   Clear
11:14 AM 69.1 °F 54.9 °F 60% 30.19 in 10.0 mi North 4.6 mph - N/A   Clear
11:35 AM 69.4 °F 54.7 °F 59% 30.19 in 10.0 mi North 6.9 mph - N/A   Clear
11:55 AM 69.6 °F 54.7 °F 59% 30.19 in 10.0 mi NE 5.8 mph - N/A   Clear
12:14 PM 70.3 °F 55.6 °F 59% 30.20 in 10.0 mi NE 3.5 mph - N/A   Clear
12:35 PM 71.1 °F 55.2 °F 57% 30.20 in 10.0 mi North 4.6 mph - N/A   Scattered Clouds
12:55 PM 71.1 °F 56.1 °F 59% 30.20 in 10.0 mi NNE 5.8 mph - N/A   Scattered Clouds
1:14 PM 71.6 °F 55.2 °F 56% 30.20 in 10.0 mi North 3.5 mph - N/A   Scattered Clouds
1:35 PM 73.2 °F 55.0 °F 53% 30.20 in 10.0 mi NW 6.9 mph - N/A   Clear
1:55 PM 72.5 °F 54.7 °F 53% 30.20 in 10.0 mi Calm Calm - N/A   Clear
2:14 PM 72.9 °F 55.2 °F 54% 30.20 in 10.0 mi Calm Calm - N/A   Scattered Clouds
2:35 PM 73.2 °F 55.9 °F 55% 30.19 in 10.0 mi NNE 3.5 mph - N/A   Scattered Clouds
2:55 PM 73.9 °F 55.2 °F 52% 30.19 in 10.0 mi Calm Calm - N/A   Scattered Clouds
3:35 PM 74.3 °F 54.9 °F 51% 30.18 in 10.0 mi East 5.8 mph - N/A   Clear
3:55 PM 73.2 °F 55.4 °F 54% 30.17 in 10.0 mi Calm Calm - N/A   Mostly Cloudy
4:35 PM 72.9 °F 53.6 °F 51% 30.17 in 10.0 mi Calm Calm - N/A   Mostly Cloudy
4:55 PM 73.9 °F 54.5 °F 51% 30.17 in 10.0 mi NE 4.6 mph - N/A   Mostly Cloudy
5:15 PM 74.3 °F 53.2 °F 48% 30.16 in 10.0 mi Calm Calm - N/A   Clear
5:35 PM 72.7 °F 56.8 °F 57% 30.16 in 10.0 mi North 3.5 mph - N/A   Clear
5:55 PM 71.6 °F 56.3 °F 58% 30.16 in 10.0 mi Calm Calm - N/A   Clear
6:15 PM 74.3 °F 55.4 °F 52% 30.15 in 10.0 mi Calm Calm - N/A   Clear
6:35 PM 73.6 °F 55.8 °F 54% 30.15 in 10.0 mi North 4.6 mph - N/A   Clear
6:55 PM 71.6 °F 55.0 °F 56% 30.15 in 10.0 mi North 3.5 mph - N/A   Clear
7:15 PM 73.9 °F 55.6 °F 53% 30.15 in 10.0 mi Calm Calm - N/A   Clear
7:35 PM 74.7 °F 57.4 °F 55% 30.15 in 10.0 mi NW 3.5 mph - N/A   Clear
7:54 PM 73.4 °F 55.4 °F 53% 30.16 in 10.0 mi Calm Calm - N/A   Clear
8:15 PM 72.9 °F 56.5 °F 56% 30.16 in 10.0 mi Calm Calm - N/A   Clear
8:35 PM 72.0 °F 58.3 °F 62% 30.16 in 10.0 mi Calm Calm - N/A   Clear
8:54 PM 70.2 °F 58.3 °F 66% 30.16 in 10.0 mi Calm Calm - N/A   Clear
9:15 PM 67.5 °F 59.5 °F 76% 30.16 in 10.0 mi Calm Calm - N/A   Clear
9:35 PM 66.0 °F 60.1 °F 81% 30.16 in 10.0 mi Calm Calm - N/A   Clear
9:54 PM 65.1 °F 59.2 °F 81% 30.17 in 10.0 mi Calm Calm - N/A   Clear
10:15 PM 64.6 °F 59.9 °F 85% 30.17 in 10.0 mi Calm Calm - N/A   Clear
10:35 PM 63.0 °F 59.0 °F 87% 30.18 in 10.0 mi Calm Calm - N/A   Clear
10:54 PM 62.2 °F 58.1 °F 86% 30.18 in 10.0 mi Calm Calm - N/A   Clear
11:15 PM 62.1 °F 59.0 °F 90% 30.18 in 10.0 mi Calm Calm - N/A   Clear
11:35 PM 61.5 °F 58.1 °F 89% 30.19 in 10.0 mi Calm Calm - N/A   Clear
11:55 PM 60.4 °F 58.3 °F 93% 30.19 in 10.0 mi Calm Calm - N/A   Clear